Time,TemperatureF,DewpointF,PressureIn,WindDirection,WindDirectionDegrees,WindSpeedMPH,WindSpeedGustMPH,Humidity,HourlyPrecipIn,Conditions,Clouds,dailyrainin,SoftwareType,DateUTC
2013-06-09 02:12:00,49.0,47.0,-100.00,SE,125,1.0,3.0,93,-99.99,,,-99.99,,2013-06-09 06:12:00,
2013-06-09 03:22:00,49.0,47.0,-100.00,NW,325,3.0,-999.0,93,-99.99,,,-99.99,,2013-06-09 07:22:00,
2013-06-09 03:32:00,49.0,46.0,-100.00,SSW,194,1.0,-999.0,92,-99.99,,,-99.99,,2013-06-09 07:32:00,
2013-06-09 03:42:00,48.0,46.0,-100.00,West,265,2.0,-999.0,94,-99.99,,,-99.99,,2013-06-09 07:42:00,
2013-06-09 03:52:00,47.0,44.0,-100.00,West,265,2.0,-999.0,92,-99.99,,,-99.99,,2013-06-09 07:52:00,
2013-06-09 04:02:00,47.0,45.0,-100.00,NNW,330,2.0,-999.0,93,-99.99,,,-99.99,,2013-06-09 08:02:00,
2013-06-09 04:12:00,45.0,44.0,-100.00,NNW,330,2.0,-999.0,94,-99.99,,,-99.99,,2013-06-09 08:12:00,
2013-06-09 04:22:00,45.0,44.0,-100.00,North,10,2.0,-999.0,95,-99.99,,,-99.99,,2013-06-09 08:22:00,
2013-06-09 04:32:00,45.0,44.0,-100.00,SW,218,2.0,-999.0,96,-99.99,,,-99.99,,2013-06-09 08:32:00,
2013-06-09 04:42:00,45.0,44.0,-100.00,NE,50,1.0,-999.0,95,-99.99,,,-99.99,,2013-06-09 08:42:00,
2013-06-09 04:53:00,45.0,45.0,-100.00,South,175,1.0,-999.0,97,-99.99,,,-99.99,,2013-06-09 08:53:00,
2013-06-09 05:02:00,45.0,45.0,-100.00,South,175,1.0,-999.0,97,-99.99,,,-99.99,,2013-06-09 09:02:00,
2013-06-09 05:12:00,45.0,45.0,-100.00,South,180,1.0,2.0,97,-99.99,,,-99.99,,2013-06-09 09:12:00,
2013-06-09 06:03:00,44.0,43.0,-100.00,NW,315,2.0,5.0,97,-99.99,,,-99.99,,2013-06-09 10:03:00,
2013-06-09 06:13:00,43.0,42.0,-100.00,North,355,5.0,5.0,96,-99.99,,,-99.99,,2013-06-09 10:13:00,
2013-06-09 06:23:00,42.0,42.0,-100.00,North,5,5.0,7.0,97,-99.99,,,-99.99,,2013-06-09 10:23:00,
2013-06-09 06:32:00,42.0,41.0,-100.00,SE,126,2.0,7.0,97,-99.99,,,-99.99,,2013-06-09 10:32:00,
2013-06-09 06:43:00,43.0,43.0,-100.00,SSE,165,1.0,3.0,99,-99.99,,,-99.99,,2013-06-09 10:43:00,
2013-06-09 06:52:00,46.0,45.0,-100.00,SSE,165,2.0,2.0,98,-99.99,,,-99.99,,2013-06-09 10:52:00,
2013-06-09 07:02:00,46.0,45.0,-100.00,SSE,165,2.0,2.0,98,-99.99,,,-99.99,,2013-06-09 11:02:00,
2013-06-09 07:12:00,46.0,45.0,-100.00,SE,145,1.0,1.0,97,-99.99,,,-99.99,,2013-06-09 11:12:00,
2013-06-09 07:22:00,46.0,45.0,-100.00,WSW,245,1.0,2.0,96,-99.99,,,-99.99,,2013-06-09 11:22:00,
2013-06-09 07:32:00,47.0,46.0,-100.00,ESE,108,1.0,2.0,95,-99.99,,,-99.99,,2013-06-09 11:32:00,
2013-06-09 07:42:00,49.0,48.0,-100.00,North,5,1.0,2.0,95,-99.99,,,-99.99,,2013-06-09 11:42:00,
2013-06-09 07:52:00,49.0,48.0,-100.00,North,355,1.0,1.0,94,-99.99,,,-99.99,,2013-06-09 11:52:00,
2013-06-09 08:03:00,51.0,49.0,-100.00,North,355,1.0,2.0,92,-99.99,,,-99.99,,2013-06-09 12:03:00,
2013-06-09 08:12:00,52.0,49.0,-100.00,ESE,115,1.0,2.0,90,-99.99,,,-99.99,,2013-06-09 12:12:00,
2013-06-09 08:22:00,54.0,51.0,-100.00,South,175,2.0,2.0,91,-99.99,,,-99.99,,2013-06-09 12:22:00,
2013-06-09 08:32:00,56.0,52.0,-100.00,NNE,14,2.0,2.0,87,-99.99,,,-99.99,,2013-06-09 12:32:00,
2013-06-09 08:42:00,57.0,53.0,-100.00,East,95,1.0,2.0,86,-99.99,,,-99.99,,2013-06-09 12:42:00,
2013-06-09 08:52:00,59.0,54.0,-100.00,East,80,1.0,2.0,82,-99.99,,,-99.99,,2013-06-09 12:52:00,
2013-06-09 09:02:00,60.0,54.0,-100.00,ESE,110,1.0,2.0,81,-99.99,,,-99.99,,2013-06-09 13:02:00,
2013-06-09 09:12:00,62.0,54.0,-100.00,ENE,75,1.0,3.0,77,-99.99,,,-99.99,,2013-06-09 13:12:00,
2013-06-09 09:22:00,62.0,55.0,-100.00,ESE,110,1.0,3.0,77,-99.99,,,-99.99,,2013-06-09 13:22:00,
2013-06-09 09:32:00,65.0,55.0,-100.00,East,96,3.0,3.0,71,-99.99,,,-99.99,,2013-06-09 13:32:00,
2013-06-09 09:42:00,66.0,56.0,-100.00,East,90,1.0,2.0,70,-99.99,,,-99.99,,2013-06-09 13:42:00,
2013-06-09 09:52:00,68.0,58.0,-100.00,East,95,1.0,2.0,69,-99.99,,,-99.99,,2013-06-09 13:52:00,
2013-06-09 10:02:00,69.0,57.0,-100.00,East,95,1.0,2.0,65,-99.99,,,-99.99,,2013-06-09 14:02:00,
2013-06-09 10:12:00,71.0,56.0,-100.00,East,95,1.0,2.0,59,-99.99,,,-99.99,,2013-06-09 14:12:00,
2013-06-09 11:12:00,74.0,56.0,-100.00,ESE,115,1.0,5.0,54,-99.99,,,-99.99,,2013-06-09 15:12:00,
2013-06-09 13:42:00,76.0,53.0,-100.00,ESE,120,9.0,13.0,45,-99.99,,,-99.99,,2013-06-09 17:42:00,
2013-06-09 14:03:00,77.0,54.0,-100.00,SE,125,10.0,15.0,45,-99.99,,,-99.99,,2013-06-09 18:03:00,
2013-06-09 14:12:00,78.0,52.0,-100.00,SE,125,10.0,15.0,41,-99.99,,,-99.99,,2013-06-09 18:12:00,
2013-06-09 14:22:00,80.0,54.0,-100.00,SE,145,10.0,15.0,42,-99.99,,,-99.99,,2013-06-09 18:22:00,
2013-06-09 14:33:00,80.0,51.0,-100.00,SE,136,16.0,18.0,37,-99.99,,,-99.99,,2013-06-09 18:33:00,
2013-06-09 14:42:00,80.0,55.0,-100.00,SE,136,16.0,21.0,41,-99.99,,,-99.99,,2013-06-09 18:42:00,
2013-06-09 14:52:00,79.0,55.0,-100.00,SE,125,14.0,21.0,43,-99.99,,,-99.99,,2013-06-09 18:52:00,
2013-06-09 15:02:00,78.0,56.0,-100.00,ESE,115,17.0,22.0,47,-99.99,,,-99.99,,2013-06-09 19:02:00,
2013-06-09 15:12:00,80.0,56.0,-100.00,ESE,105,16.0,23.0,44,-99.99,,,-99.99,,2013-06-09 19:12:00,
2013-06-09 15:22:00,78.0,54.0,-100.00,ESE,105,16.0,21.0,44,-99.99,,,-99.99,,2013-06-09 19:22:00,
2013-06-09 15:42:00,79.0,50.0,-100.00,ESE,120,15.0,22.0,37,-99.99,,,-99.99,,2013-06-09 19:42:00,
2013-06-09 15:52:00,79.0,53.0,-100.00,ESE,120,15.0,20.0,41,-99.99,,,-99.99,,2013-06-09 19:52:00,
2013-06-09 16:03:00,78.0,55.0,-100.00,ESE,120,15.0,22.0,46,-99.99,,,-99.99,,2013-06-09 20:03:00,
2013-06-09 16:12:00,78.0,55.0,-100.00,ESE,120,15.0,22.0,46,-99.99,,,-99.99,,2013-06-09 20:12:00,
2013-06-09 16:22:00,78.0,56.0,-100.00,SE,130,15.0,21.0,47,-99.99,,,-99.99,,2013-06-09 20:22:00,
2013-06-09 16:32:00,79.0,57.0,-100.00,SE,142,15.0,21.0,47,-99.99,,,-99.99,,2013-06-09 20:32:00,
2013-06-09 16:52:00,79.0,56.0,-100.00,SE,135,13.0,21.0,45,-99.99,,,-99.99,,2013-06-09 20:52:00,
2013-06-09 17:03:00,79.0,56.0,-100.00,SE,135,13.0,21.0,45,-99.99,,,-99.99,,2013-06-09 21:03:00,
2013-06-09 17:12:00,80.0,57.0,-100.00,SE,125,13.0,21.0,46,-99.99,,,-99.99,,2013-06-09 21:12:00,
2013-06-09 17:22:00,80.0,57.0,-100.00,SE,125,13.0,20.0,45,-99.99,,,-99.99,,2013-06-09 21:22:00,
2013-06-09 17:33:00,80.0,58.0,-100.00,SE,132,14.0,21.0,46,-99.99,,,-99.99,,2013-06-09 21:33:00,
2013-06-09 17:43:00,79.0,56.0,-100.00,ESE,115,14.0,20.0,45,-99.99,,,-99.99,,2013-06-09 21:43:00,
2013-06-09 17:53:00,78.0,55.0,-100.00,ESE,115,16.0,23.0,44,-99.99,,,-99.99,,2013-06-09 21:53:00,
2013-06-09 18:02:00,78.0,55.0,-100.00,ESE,115,16.0,23.0,44,-99.99,,,-99.99,,2013-06-09 22:02:00,
2013-06-09 18:13:00,78.0,53.0,-100.00,SE,125,17.0,23.0,43,-99.99,,,-99.99,,2013-06-09 22:13:00,
2013-06-09 18:23:00,78.0,56.0,-100.00,SE,125,17.0,21.0,47,-99.99,,,-99.99,,2013-06-09 22:23:00,
2013-06-09 18:33:00,78.0,54.0,-100.00,SE,138,15.0,22.0,44,-99.99,,,-99.99,,2013-06-09 22:33:00,
2013-06-09 18:42:00,76.0,54.0,-100.00,ESE,120,14.0,24.0,46,-99.99,,,-99.99,,2013-06-09 22:42:00,
2013-06-09 18:52:00,77.0,56.0,-100.00,ESE,120,14.0,24.0,48,-99.99,,,-99.99,,2013-06-09 22:52:00,
2013-06-09 19:02:00,76.0,55.0,-100.00,ESE,115,17.0,23.0,48,-99.99,,,-99.99,,2013-06-09 23:02:00,
2013-06-09 19:12:00,76.0,55.0,-100.00,SE,130,14.0,24.0,48,-99.99,,,-99.99,,2013-06-09 23:12:00,
2013-06-09 19:22:00,74.0,55.0,-100.00,SE,130,14.0,20.0,50,-99.99,,,-99.99,,2013-06-09 23:22:00,
2013-06-09 19:32:00,74.0,53.0,-100.00,SE,128,14.0,20.0,49,-99.99,,,-99.99,,2013-06-09 23:32:00,
2013-06-09 19:43:00,73.0,54.0,-100.00,SE,125,15.0,23.0,51,-99.99,,,-99.99,,2013-06-09 23:43:00,
2013-06-09 19:52:00,74.0,57.0,-100.00,SE,130,13.0,21.0,55,-99.99,,,-99.99,,2013-06-09 23:52:00,
2013-06-09 20:02:00,74.0,57.0,-100.00,SE,130,13.0,21.0,55,-99.99,,,-99.99,,2013-06-10 00:02:00,
2013-06-09 20:13:00,73.0,56.0,-100.00,ESE,110,13.0,17.0,54,-99.99,,,-99.99,,2013-06-10 00:13:00,
2013-06-09 20:22:00,72.0,55.0,-100.00,ESE,105,14.0,20.0,55,-99.99,,,-99.99,,2013-06-10 00:22:00,
2013-06-09 20:42:00,71.0,57.0,-100.00,East,95,12.0,17.0,61,-99.99,,,-99.99,,2013-06-10 00:42:00,
2013-06-09 20:52:00,71.0,56.0,-100.00,East,100,14.0,18.0,60,-99.99,,,-99.99,,2013-06-10 00:52:00,
2013-06-09 21:03:00,70.0,55.0,-100.00,East,100,15.0,20.0,58,-99.99,,,-99.99,,2013-06-10 01:03:00,
2013-06-09 21:12:00,69.0,56.0,-100.00,East,100,15.0,20.0,63,-99.99,,,-99.99,,2013-06-10 01:12:00,
2013-06-09 21:22:00,69.0,55.0,-100.00,ESE,105,12.0,17.0,62,-99.99,,,-99.99,,2013-06-10 01:22:00,
2013-06-09 21:32:00,66.0,56.0,-100.00,ESE,105,10.0,13.0,69,-99.99,,,-99.99,,2013-06-10 01:32:00,
2013-06-09 21:43:00,66.0,56.0,-100.00,ESE,105,10.0,13.0,69,-99.99,,,-99.99,,2013-06-10 01:43:00,
2013-06-09 21:52:00,66.0,56.0,-100.00,ESE,105,10.0,12.0,69,-99.99,,,-99.99,,2013-06-10 01:52:00,
2013-06-09 22:02:00,65.0,56.0,-100.00,ESE,105,9.0,13.0,71,-99.99,,,-99.99,,2013-06-10 02:02:00,
2013-06-09 22:12:00,65.0,56.0,-100.00,East,85,8.0,12.0,74,-99.99,,,-99.99,,2013-06-10 02:12:00,
2013-06-09 22:22:00,65.0,55.0,-100.00,East,85,8.0,10.0,70,-99.99,,,-99.99,,2013-06-10 02:22:00,
2013-06-09 22:32:00,64.0,56.0,-100.00,East,90,9.0,10.0,74,-99.99,,,-99.99,,2013-06-10 02:32:00,
2013-06-09 22:42:00,64.0,56.0,-100.00,East,90,9.0,10.0,74,-99.99,,,-99.99,,2013-06-10 02:42:00,
2013-06-09 22:52:00,63.0,56.0,-100.00,East,90,10.0,12.0,77,-99.99,,,-99.99,,2013-06-10 02:52:00,
2013-06-09 23:02:00,63.0,56.0,-100.00,East,90,10.0,12.0,77,-99.99,,,-99.99,,2013-06-10 03:02:00,
2013-06-09 23:12:00,63.0,56.0,-100.00,East,90,9.0,12.0,78,-99.99,,,-99.99,,2013-06-10 03:12:00,
2013-06-09 23:22:00,63.0,56.0,-100.00,East,95,10.0,12.0,78,-99.99,,,-99.99,,2013-06-10 03:22:00,
2013-06-09 23:33:00,63.0,56.0,-100.00,ESE,106,10.0,13.0,78,-99.99,,,-99.99,,2013-06-10 03:33:00,
2013-06-09 23:43:00,63.0,56.0,-100.00,East,95,10.0,13.0,78,-99.99,,,-99.99,,2013-06-10 03:43:00,
2013-06-09 23:53:00,63.0,57.0,-100.00,East,90,10.0,13.0,79,-99.99,,,-99.99,,2013-06-10 03:53:00,